Year,Month,Day,Hour,Minute,Value (Times are PST for temperature in C)
2018,06,21,00,00,18.70
2018,06,21,00,01,18.60
2018,06,21,00,02,18.50
2018,06,21,00,03,18.40
2018,06,21,00,04,18.40
2018,06,21,00,05,18.30
2018,06,21,00,06,18.30
2018,06,21,00,07,18.20
2018,06,21,00,08,18.20
2018,06,21,00,09,18.20
2018,06,21,00,10,18.10
2018,06,21,00,11,18.10
2018,06,21,00,12,18.10
2018,06,21,00,13,18.10
2018,06,21,00,14,18.00
2018,06,21,00,15,18.00
2018,06,21,00,16,17.90
2018,06,21,00,17,17.90
2018,06,21,00,18,17.80
2018,06,21,00,19,17.80
2018,06,21,00,20,17.70
2018,06,21,00,21,17.70
2018,06,21,00,22,17.70
2018,06,21,00,23,17.60
2018,06,21,00,24,17.60
2018,06,21,00,25,17.50
2018,06,21,00,26,17.50
2018,06,21,00,27,17.50
2018,06,21,00,28,17.40
2018,06,21,00,29,17.40
2018,06,21,00,30,17.30
2018,06,21,00,31,17.30
2018,06,21,00,32,17.30
2018,06,21,00,33,17.20
2018,06,21,00,34,17.20
2018,06,21,00,35,17.20
2018,06,21,00,36,17.10
2018,06,21,00,37,17.10
2018,06,21,00,38,17.00
2018,06,21,00,39,17.00
2018,06,21,00,40,16.90
2018,06,21,00,41,16.90
2018,06,21,00,42,16.80
2018,06,21,00,43,16.80
2018,06,21,00,44,16.80
2018,06,21,00,45,16.80
2018,06,21,00,46,16.70
2018,06,21,00,47,16.70
2018,06,21,00,48,16.70
2018,06,21,00,49,16.60
2018,06,21,00,50,16.60
2018,06,21,00,51,16.60
2018,06,21,00,52,16.50
2018,06,21,00,53,16.50
2018,06,21,00,54,16.40
2018,06,21,00,55,16.40
2018,06,21,00,56,16.40
2018,06,21,00,57,16.30
2018,06,21,00,58,16.30
2018,06,21,00,59,16.30
2018,06,21,01,00,16.20
2018,06,21,01,01,16.20
2018,06,21,01,02,16.10
2018,06,21,01,03,16.10
2018,06,21,01,04,16.00
2018,06,21,01,05,16.00
2018,06,21,01,06,15.90
2018,06,21,01,07,15.90
2018,06,21,01,08,15.90
2018,06,21,01,09,15.90
2018,06,21,01,10,15.80
2018,06,21,01,11,15.80
2018,06,21,01,12,15.80
2018,06,21,01,13,15.80
2018,06,21,01,14,15.80
2018,06,21,01,15,15.70
2018,06,21,01,16,15.70
2018,06,21,01,17,15.70
2018,06,21,01,18,15.70
2018,06,21,01,19,15.60
2018,06,21,01,20,15.60
2018,06,21,01,21,15.60
2018,06,21,01,22,15.60
2018,06,21,01,23,15.60
2018,06,21,01,24,15.60
2018,06,21,01,25,15.60
2018,06,21,01,26,15.50
2018,06,21,01,27,15.50
2018,06,21,01,28,15.50
2018,06,21,01,29,15.50
2018,06,21,01,30,15.50
2018,06,21,01,31,15.40
2018,06,21,01,32,15.40
2018,06,21,01,33,15.40
2018,06,21,01,34,15.40
2018,06,21,01,35,15.30
2018,06,21,01,36,15.30
2018,06,21,01,37,15.30
2018,06,21,01,38,15.30
2018,06,21,01,39,15.20
2018,06,21,01,40,15.20
2018,06,21,01,41,15.20
2018,06,21,01,42,15.20
2018,06,21,01,43,15.10
2018,06,21,01,44,15.10
2018,06,21,01,45,15.00
2018,06,21,01,46,15.00
2018,06,21,01,47,15.00
2018,06,21,01,48,14.90
2018,06,21,01,49,14.90
2018,06,21,01,50,14.90
2018,06,21,01,51,14.80
2018,06,21,01,52,14.80
2018,06,21,01,53,14.80
2018,06,21,01,54,14.80
2018,06,21,01,55,14.80
2018,06,21,01,56,14.70
2018,06,21,01,57,14.70
2018,06,21,01,58,14.70
2018,06,21,01,59,14.60
2018,06,21,02,00,14.60
2018,06,21,02,01,14.60
2018,06,21,02,02,14.50
2018,06,21,02,03,14.50
2018,06,21,02,04,14.40
2018,06,21,02,05,14.40
2018,06,21,02,06,14.40
2018,06,21,02,07,14.30
2018,06,21,02,08,14.30
2018,06,21,02,09,14.20
2018,06,21,02,10,14.20
2018,06,21,02,11,14.20
2018,06,21,02,12,14.10
2018,06,21,02,13,14.10
2018,06,21,02,14,14.10
2018,06,21,02,15,14.10
2018,06,21,02,16,14.00
2018,06,21,02,17,14.00
2018,06,21,02,18,14.00
2018,06,21,02,19,14.00
2018,06,21,02,20,13.90
2018,06,21,02,21,13.90
2018,06,21,02,22,13.90
2018,06,21,02,23,13.90
2018,06,21,02,24,13.90
2018,06,21,02,25,13.90
2018,06,21,02,26,13.90
2018,06,21,02,27,13.80
2018,06,21,02,28,13.80
2018,06,21,02,29,13.80
2018,06,21,02,30,13.80
2018,06,21,02,31,13.70
2018,06,21,02,32,13.70
2018,06,21,02,33,13.70
2018,06,21,02,34,13.70
2018,06,21,02,35,13.70
2018,06,21,02,36,13.70
2018,06,21,02,37,13.60
2018,06,21,02,38,13.60
2018,06,21,02,39,13.60
2018,06,21,02,40,13.60
2018,06,21,02,41,13.50
2018,06,21,02,42,13.50
2018,06,21,02,43,13.40
2018,06,21,02,44,13.40
2018,06,21,02,45,13.40
2018,06,21,02,46,13.40
2018,06,21,02,47,13.40
2018,06,21,02,48,13.30
2018,06,21,02,49,13.30
2018,06,21,02,50,13.30
2018,06,21,02,51,13.30
2018,06,21,02,52,13.30
2018,06,21,02,53,13.30
2018,06,21,02,54,13.20
2018,06,21,02,55,13.20
2018,06,21,02,56,13.20
2018,06,21,02,57,13.20
2018,06,21,02,58,13.20
2018,06,21,02,59,13.10
2018,06,21,03,00,13.10
2018,06,21,03,01,13.10
2018,06,21,03,02,13.00
2018,06,21,03,03,13.00
2018,06,21,03,04,13.00
2018,06,21,03,05,12.90
2018,06,21,03,06,12.90
2018,06,21,03,07,12.90
2018,06,21,03,08,12.90
2018,06,21,03,09,12.90
2018,06,21,03,10,12.80
2018,06,21,03,11,12.80
2018,06,21,03,12,12.80
2018,06,21,03,13,12.80
2018,06,21,03,14,12.70
2018,06,21,03,15,12.70
2018,06,21,03,16,12.70
2018,06,21,03,17,12.70
2018,06,21,03,18,12.70
2018,06,21,03,19,12.60
2018,06,21,03,20,12.60
2018,06,21,03,21,12.60
2018,06,21,03,22,12.60
2018,06,21,03,23,12.50
2018,06,21,03,24,12.50
2018,06,21,03,25,12.40
2018,06,21,03,26,12.40
2018,06,21,03,27,12.40
2018,06,21,03,28,12.40
2018,06,21,03,29,12.40
2018,06,21,03,30,12.40
2018,06,21,03,31,12.40
2018,06,21,03,32,12.30
2018,06,21,03,33,12.30
2018,06,21,03,34,12.30
2018,06,21,03,35,12.30
2018,06,21,03,36,12.30
2018,06,21,03,37,12.30
2018,06,21,03,38,12.30
2018,06,21,03,39,12.30
2018,06,21,03,40,12.20
2018,06,21,03,41,12.20
2018,06,21,03,42,12.20
2018,06,21,03,43,12.20
2018,06,21,03,44,12.20
2018,06,21,03,45,12.20
2018,06,21,03,46,12.20
2018,06,21,03,47,12.20
2018,06,21,03,48,12.20
2018,06,21,03,49,12.20
2018,06,21,03,50,12.20
2018,06,21,03,51,12.20
2018,06,21,03,52,12.10
2018,06,21,03,53,12.10
2018,06,21,03,54,12.10
2018,06,21,03,55,12.10
2018,06,21,03,56,12.10
2018,06,21,03,57,12.10
2018,06,21,03,58,12.10
2018,06,21,03,59,12.00
2018,06,21,04,00,12.00
2018,06,21,04,01,12.00
2018,06,21,04,02,11.90
2018,06,21,04,03,11.90
2018,06,21,04,04,11.90
2018,06,21,04,05,11.90
2018,06,21,04,06,11.90
2018,06,21,04,07,11.90
2018,06,21,04,08,11.80
2018,06,21,04,09,11.80
2018,06,21,04,10,11.80
2018,06,21,04,11,11.80
2018,06,21,04,12,11.80
2018,06,21,04,13,11.80
2018,06,21,04,14,11.70
2018,06,21,04,15,11.70
2018,06,21,04,16,11.70
2018,06,21,04,17,11.70
2018,06,21,04,18,11.70
2018,06,21,04,19,11.70
2018,06,21,04,20,11.70
2018,06,21,04,21,11.80
2018,06,21,04,22,11.80
2018,06,21,04,23,11.80
2018,06,21,04,24,11.80
2018,06,21,04,25,11.80
2018,06,21,04,26,11.80
2018,06,21,04,27,11.80
2018,06,21,04,28,11.80
2018,06,21,04,29,11.80
2018,06,21,04,30,11.80
2018,06,21,04,31,11.80
2018,06,21,04,32,11.80
2018,06,21,04,33,11.80
2018,06,21,04,34,11.80
2018,06,21,04,35,11.80
2018,06,21,04,36,11.80
2018,06,21,04,37,11.80
2018,06,21,04,38,11.80
2018,06,21,04,39,11.80
2018,06,21,04,40,11.80
2018,06,21,04,41,11.80
2018,06,21,04,42,11.80
2018,06,21,04,43,11.80
2018,06,21,04,44,11.80
2018,06,21,04,45,11.80
2018,06,21,04,46,11.80
2018,06,21,04,47,11.80
2018,06,21,04,48,11.80
2018,06,21,04,49,11.80
2018,06,21,04,50,11.90
2018,06,21,04,51,11.90
2018,06,21,04,52,11.90
2018,06,21,04,53,11.90
2018,06,21,04,54,11.90
2018,06,21,04,55,11.90
2018,06,21,04,56,11.90
2018,06,21,04,57,11.90
2018,06,21,04,58,11.90
2018,06,21,04,59,11.90
2018,06,21,05,00,11.90
2018,06,21,05,01,11.90
2018,06,21,05,02,11.90
2018,06,21,05,03,11.90
2018,06,21,05,04,11.90
2018,06,21,05,05,11.90
2018,06,21,05,06,11.90
2018,06,21,05,07,11.90
2018,06,21,05,08,11.90
2018,06,21,05,09,11.90
2018,06,21,05,10,12.00
2018,06,21,05,11,12.00
2018,06,21,05,12,12.00
2018,06,21,05,13,12.00
2018,06,21,05,14,12.00
2018,06,21,05,15,12.00
2018,06,21,05,16,12.10
2018,06,21,05,17,12.10
2018,06,21,05,18,12.10
2018,06,21,05,19,12.10
2018,06,21,05,20,12.10
2018,06,21,05,21,12.10
2018,06,21,05,22,12.10
2018,06,21,05,23,12.10
2018,06,21,05,24,12.10
2018,06,21,05,25,12.10
2018,06,21,05,26,12.10
2018,06,21,05,27,12.10
2018,06,21,05,28,12.10
2018,06,21,05,29,12.10
2018,06,21,05,30,12.10
2018,06,21,05,31,12.10
2018,06,21,05,32,12.10
2018,06,21,05,33,12.10
2018,06,21,05,34,12.10
2018,06,21,05,35,12.20
2018,06,21,05,36,12.20
2018,06,21,05,37,12.20
2018,06,21,05,38,12.20
2018,06,21,05,39,12.20
2018,06,21,05,40,12.20
2018,06,21,05,41,12.20
2018,06,21,05,42,12.20
2018,06,21,05,43,12.20
2018,06,21,05,44,12.20
2018,06,21,05,45,12.20
2018,06,21,05,46,12.20
2018,06,21,05,47,12.30
2018,06,21,05,48,12.30
2018,06,21,05,49,12.30
2018,06,21,05,50,12.30
2018,06,21,05,51,12.30
2018,06,21,05,52,12.30
2018,06,21,05,53,12.30
2018,06,21,05,54,12.30
2018,06,21,05,55,12.30
2018,06,21,05,56,12.30
2018,06,21,05,57,12.30
2018,06,21,05,58,12.30
2018,06,21,05,59,12.30
2018,06,21,06,00,12.30
2018,06,21,06,01,12.30
2018,06,21,06,02,12.30
2018,06,21,06,03,12.30
2018,06,21,06,04,12.30
2018,06,21,06,05,12.30
2018,06,21,06,06,12.30
2018,06,21,06,07,12.30
2018,06,21,06,08,12.30
2018,06,21,06,09,12.30
2018,06,21,06,10,12.30
2018,06,21,06,11,12.30
2018,06,21,06,12,12.30
2018,06,21,06,13,12.30
2018,06,21,06,14,12.30
2018,06,21,06,15,12.30
2018,06,21,06,16,12.30
2018,06,21,06,17,12.30
2018,06,21,06,18,12.30
2018,06,21,06,19,12.30
2018,06,21,06,20,12.30
2018,06,21,06,21,12.30
2018,06,21,06,22,12.30
2018,06,21,06,23,12.30
2018,06,21,06,24,12.30
2018,06,21,06,25,12.30
2018,06,21,06,26,12.30
2018,06,21,06,27,12.30
2018,06,21,06,28,12.40
2018,06,21,06,29,12.40
2018,06,21,06,30,12.40
2018,06,21,06,31,12.40
2018,06,21,06,32,12.40
2018,06,21,06,33,12.40
2018,06,21,06,34,12.50
2018,06,21,06,35,12.50
2018,06,21,06,36,12.50
2018,06,21,06,37,12.50
2018,06,21,06,38,12.60
2018,06,21,06,39,12.60
2018,06,21,06,40,12.60
2018,06,21,06,41,12.60
2018,06,21,06,42,12.60
2018,06,21,06,43,12.60
2018,06,21,06,44,12.70
2018,06,21,06,45,12.70
2018,06,21,06,46,12.70
2018,06,21,06,47,12.70
2018,06,21,06,48,12.70
2018,06,21,06,49,12.80
2018,06,21,06,50,12.80
2018,06,21,06,51,12.80
2018,06,21,06,52,12.80
2018,06,21,06,53,12.80
2018,06,21,06,54,12.80
2018,06,21,06,55,12.80
2018,06,21,06,56,12.80
2018,06,21,06,57,12.80
2018,06,21,06,58,12.80
2018,06,21,06,59,12.80
2018,06,21,07,00,12.80
2018,06,21,07,01,12.80
2018,06,21,07,02,12.80
2018,06,21,07,03,12.80
2018,06,21,07,04,12.80
2018,06,21,07,05,12.80
2018,06,21,07,06,12.80
2018,06,21,07,07,12.80
2018,06,21,07,08,12.80
2018,06,21,07,09,12.80
2018,06,21,07,10,12.80
2018,06,21,07,11,12.80
2018,06,21,07,12,12.80
2018,06,21,07,13,12.80
2018,06,21,07,14,12.80
2018,06,21,07,15,12.90
2018,06,21,07,16,12.90
2018,06,21,07,17,12.90
2018,06,21,07,18,13.00
2018,06,21,07,19,13.00
2018,06,21,07,20,13.10
2018,06,21,07,21,13.10
2018,06,21,07,22,13.20
2018,06,21,07,23,13.20
2018,06,21,07,24,13.20
2018,06,21,07,25,13.20
2018,06,21,07,26,13.30
2018,06,21,07,27,13.30
2018,06,21,07,28,13.30
2018,06,21,07,29,13.30
2018,06,21,07,30,13.30
2018,06,21,07,31,13.30
2018,06,21,07,32,13.40
2018,06,21,07,33,13.40
2018,06,21,07,34,13.40
2018,06,21,07,35,13.50
2018,06,21,07,36,13.50
2018,06,21,07,37,13.60
2018,06,21,07,38,13.60
2018,06,21,07,39,13.60
2018,06,21,07,40,13.60
2018,06,21,07,41,13.60
2018,06,21,07,42,13.70
2018,06,21,07,43,13.70
2018,06,21,07,44,13.70
2018,06,21,07,45,13.70
2018,06,21,07,46,13.70
2018,06,21,07,47,13.80
2018,06,21,07,48,13.80
2018,06,21,07,49,13.80
2018,06,21,07,50,13.80
2018,06,21,07,51,13.90
2018,06,21,07,52,13.90
2018,06,21,07,53,14.00
2018,06,21,07,54,14.00
2018,06,21,07,55,14.10
2018,06,21,07,56,14.10
2018,06,21,07,57,14.20
2018,06,21,07,58,14.20
2018,06,21,07,59,14.20
2018,06,21,08,00,14.20
2018,06,21,08,01,14.20
2018,06,21,08,02,14.30
2018,06,21,08,03,14.30
2018,06,21,08,04,14.30
2018,06,21,08,05,14.30
2018,06,21,08,06,14.40
2018,06,21,08,07,14.40
2018,06,21,08,08,14.40
2018,06,21,08,09,14.40
2018,06,21,08,10,14.40
2018,06,21,08,11,14.50
2018,06,21,08,12,14.50
2018,06,21,08,13,14.50
2018,06,21,08,14,14.50
2018,06,21,08,15,14.50
2018,06,21,08,16,14.40
2018,06,21,08,17,14.40
2018,06,21,08,18,14.40
2018,06,21,08,19,14.40
2018,06,21,08,20,14.50
2018,06,21,08,21,14.50
2018,06,21,08,22,14.60
2018,06,21,08,23,14.60
2018,06,21,08,24,14.60
2018,06,21,08,25,14.60
2018,06,21,08,26,14.70
2018,06,21,08,27,14.70
2018,06,21,08,28,14.70
2018,06,21,08,29,14.80
2018,06,21,08,30,14.80
2018,06,21,08,31,14.90
2018,06,21,08,32,14.90
2018,06,21,08,33,14.90
2018,06,21,08,34,14.90
2018,06,21,08,35,14.90
2018,06,21,08,36,14.90
2018,06,21,08,37,14.90
2018,06,21,08,38,15.00
2018,06,21,08,39,15.00
2018,06,21,08,40,15.00
2018,06,21,08,41,15.00
2018,06,21,08,42,15.00
2018,06,21,08,43,15.00
2018,06,21,08,44,15.00
2018,06,21,08,45,15.00
2018,06,21,08,46,15.00
2018,06,21,08,47,15.00
2018,06,21,08,48,15.00
2018,06,21,08,49,15.00
2018,06,21,08,50,15.00
2018,06,21,08,51,15.00
2018,06,21,08,52,15.00
2018,06,21,08,53,15.10
2018,06,21,08,54,15.10
2018,06,21,08,55,15.10
2018,06,21,08,56,15.10
2018,06,21,08,57,15.20
2018,06,21,08,58,15.20
2018,06,21,08,59,15.20
2018,06,21,09,00,15.20
2018,06,21,09,01,15.20
2018,06,21,09,02,15.20
2018,06,21,09,03,15.20
2018,06,21,09,04,15.20
2018,06,21,09,05,15.20
2018,06,21,09,06,15.20
2018,06,21,09,07,15.20
2018,06,21,09,08,15.30
2018,06,21,09,09,15.30
2018,06,21,09,10,15.30
2018,06,21,09,11,15.30
2018,06,21,09,12,15.40
2018,06,21,09,13,15.40
2018,06,21,09,14,15.40
2018,06,21,09,15,15.40
2018,06,21,09,16,15.50
2018,06,21,09,17,15.50
2018,06,21,09,18,15.50
2018,06,21,09,19,15.50
2018,06,21,09,20,15.50
2018,06,21,09,21,15.60
2018,06,21,09,22,15.60
2018,06,21,09,23,15.60
2018,06,21,09,24,15.60
2018,06,21,09,25,15.70
2018,06,21,09,26,15.70
2018,06,21,09,27,15.70
2018,06,21,09,28,15.70
2018,06,21,09,29,15.80
2018,06,21,09,30,15.80
2018,06,21,09,31,15.80
2018,06,21,09,32,15.80
2018,06,21,09,33,15.90
2018,06,21,09,34,15.90
2018,06,21,09,35,15.90
2018,06,21,09,36,16.00
2018,06,21,09,37,16.00
2018,06,21,09,38,16.10
2018,06,21,09,39,16.10
2018,06,21,09,40,16.10
2018,06,21,09,41,16.10
2018,06,21,09,42,16.20
2018,06,21,09,43,16.20
2018,06,21,09,44,16.20
2018,06,21,09,45,16.30
2018,06,21,09,46,16.30
2018,06,21,09,47,16.30
2018,06,21,09,48,16.30
2018,06,21,09,49,16.30
2018,06,21,09,50,16.30
2018,06,21,09,51,16.30
2018,06,21,09,52,16.40
2018,06,21,09,53,16.40
2018,06,21,09,54,16.40
2018,06,21,09,55,16.40
2018,06,21,09,56,16.40
2018,06,21,09,57,16.40
2018,06,21,09,58,16.40
2018,06,21,09,59,16.40
2018,06,21,10,00,16.40
2018,06,21,10,01,16.40
2018,06,21,10,02,16.40
2018,06,21,10,03,16.40
2018,06,21,10,04,16.50
2018,06,21,10,05,16.50
2018,06,21,10,06,16.50
2018,06,21,10,07,16.50
2018,06,21,10,08,16.50
2018,06,21,10,09,16.50
2018,06,21,10,10,16.40
2018,06,21,10,11,16.50
2018,06,21,10,12,16.50
2018,06,21,10,13,16.50
2018,06,21,10,14,16.50
2018,06,21,10,15,16.60
2018,06,21,10,16,16.60
2018,06,21,10,17,16.60
2018,06,21,10,18,16.60
2018,06,21,10,19,16.60
2018,06,21,10,20,16.60
2018,06,21,10,21,16.60
2018,06,21,10,22,16.60
2018,06,21,10,23,16.60
2018,06,21,10,24,16.60
2018,06,21,10,25,16.70
2018,06,21,10,26,16.70
2018,06,21,10,27,16.70
2018,06,21,10,28,16.70
2018,06,21,10,29,16.70
2018,06,21,10,30,16.80
2018,06,21,10,31,16.80
2018,06,21,10,32,16.90
2018,06,21,10,33,16.90
2018,06,21,10,34,16.90
2018,06,21,10,35,17.00
2018,06,21,10,36,17.00
2018,06,21,10,37,17.10
2018,06,21,10,38,17.10
2018,06,21,10,39,17.10
2018,06,21,10,40,17.20
2018,06,21,10,41,17.20
2018,06,21,10,42,17.20
2018,06,21,10,43,17.30
2018,06,21,10,44,17.30
2018,06,21,10,45,17.30
2018,06,21,10,46,17.40
2018,06,21,10,47,17.40
2018,06,21,10,48,17.40
2018,06,21,10,49,17.50
2018,06,21,10,50,17.60
2018,06,21,10,51,17.60
2018,06,21,10,52,17.70
2018,06,21,10,53,17.80
2018,06,21,10,54,17.90
2018,06,21,10,55,18.00
2018,06,21,10,56,18.00
2018,06,21,10,57,18.10
2018,06,21,10,58,18.10
2018,06,21,10,59,18.10
2018,06,21,11,00,18.10
2018,06,21,11,01,18.10
2018,06,21,11,02,18.10
2018,06,21,11,03,18.10
2018,06,21,11,04,18.20
2018,06,21,11,05,18.20
2018,06,21,11,06,18.20
2018,06,21,11,07,18.20
2018,06,21,11,08,18.20
2018,06,21,11,09,18.20
2018,06,21,11,10,18.30
2018,06,21,11,11,18.30
2018,06,21,11,12,18.30
2018,06,21,11,13,18.30
2018,06,21,11,14,18.30
2018,06,21,11,15,18.30
2018,06,21,11,16,18.30
2018,06,21,11,17,18.30
2018,06,21,11,18,18.30
2018,06,21,11,19,18.30
2018,06,21,11,20,18.30
2018,06,21,11,21,18.30
2018,06,21,11,22,18.30
2018,06,21,11,23,18.40
2018,06,21,11,24,18.40
2018,06,21,11,25,18.40
2018,06,21,11,26,18.40
2018,06,21,11,27,18.40
2018,06,21,11,28,18.50
2018,06,21,11,29,18.50
2018,06,21,11,30,18.60
2018,06,21,11,31,18.60
2018,06,21,11,32,18.60
2018,06,21,11,33,18.60
2018,06,21,11,34,18.70
2018,06,21,11,35,18.70
2018,06,21,11,36,18.70
2018,06,21,11,37,18.70
2018,06,21,11,38,18.80
2018,06,21,11,39,18.80
2018,06,21,11,40,18.80
2018,06,21,11,41,18.80
2018,06,21,11,42,18.80
2018,06,21,11,43,18.80
2018,06,21,11,44,18.90
2018,06,21,11,45,19.00
2018,06,21,11,46,19.10
2018,06,21,11,47,19.20
2018,06,21,11,48,19.30
2018,06,21,11,49,19.40
2018,06,21,11,50,19.60
2018,06,21,11,51,19.70
2018,06,21,11,52,19.80
2018,06,21,11,53,19.90
2018,06,21,11,54,20.00
2018,06,21,11,55,20.10
2018,06,21,11,56,20.10
2018,06,21,11,57,20.20
2018,06,21,11,58,20.20
2018,06,21,11,59,20.30
2018,06,21,12,00,20.30
2018,06,21,12,01,20.30
2018,06,21,12,02,20.30
2018,06,21,12,03,20.30
2018,06,21,12,04,20.30
2018,06,21,12,05,20.40
2018,06,21,12,06,20.40
2018,06,21,12,07,20.40
2018,06,21,12,08,20.40
2018,06,21,12,09,20.40
2018,06,21,12,10,20.40
2018,06,21,12,11,20.40
2018,06,21,12,12,20.50
2018,06,21,12,13,20.50
2018,06,21,12,14,20.60
2018,06,21,12,15,20.60
2018,06,21,12,16,20.60
2018,06,21,12,17,20.60
2018,06,21,12,18,20.70
2018,06,21,12,19,20.80
2018,06,21,12,20,20.90
2018,06,21,12,21,20.90
2018,06,21,12,22,21.00
2018,06,21,12,23,21.10
2018,06,21,12,24,21.30
2018,06,21,12,25,21.40
2018,06,21,12,26,21.50
2018,06,21,12,27,21.70
2018,06,21,12,28,21.90
2018,06,21,12,29,22.00
2018,06,21,12,30,22.20
2018,06,21,12,31,22.30
2018,06,21,12,32,22.40
2018,06,21,12,33,22.40
2018,06,21,12,34,22.40
2018,06,21,12,35,22.40
2018,06,21,12,36,22.50
2018,06,21,12,37,22.50
2018,06,21,12,38,22.50
2018,06,21,12,39,22.60
2018,06,21,12,40,22.70
2018,06,21,12,41,22.70
2018,06,21,12,42,22.70
2018,06,21,12,43,22.70
2018,06,21,12,44,22.70
2018,06,21,12,45,22.70
2018,06,21,12,46,22.70
2018,06,21,12,47,22.60
2018,06,21,12,48,22.50
2018,06,21,12,49,22.50
2018,06,21,12,50,22.40
2018,06,21,12,51,22.30
2018,06,21,12,52,22.30
2018,06,21,12,53,22.30
2018,06,21,12,54,22.20
2018,06,21,12,55,22.20
2018,06,21,12,56,22.20
2018,06,21,12,57,22.20
2018,06,21,12,58,22.20
2018,06,21,12,59,22.20
2018,06,21,13,00,22.20
2018,06,21,13,01,22.30
2018,06,21,13,02,22.40
2018,06,21,13,03,22.50
2018,06,21,13,04,22.50
2018,06,21,13,05,22.60
2018,06,21,13,06,22.70
2018,06,21,13,07,22.70
2018,06,21,13,08,22.80
2018,06,21,13,09,22.90
2018,06,21,13,10,22.90
2018,06,21,13,11,23.00
2018,06,21,13,12,23.00
2018,06,21,13,13,23.10
2018,06,21,13,14,23.20
2018,06,21,13,15,23.30
2018,06,21,13,16,23.30
2018,06,21,13,17,23.40
2018,06,21,13,18,23.50
2018,06,21,13,19,23.60
2018,06,21,13,20,23.70
2018,06,21,13,21,23.80
2018,06,21,13,22,23.80
2018,06,21,13,23,23.80
2018,06,21,13,24,23.90
2018,06,21,13,25,23.90
2018,06,21,13,26,23.80
2018,06,21,13,27,23.80
2018,06,21,13,28,23.80
2018,06,21,13,29,23.80
2018,06,21,13,30,23.80
2018,06,21,13,31,23.90
2018,06,21,13,32,23.90
2018,06,21,13,33,23.90
2018,06,21,13,34,24.00
2018,06,21,13,35,24.00
2018,06,21,13,36,24.00
2018,06,21,13,37,24.10
2018,06,21,13,38,24.10
2018,06,21,13,39,24.10
2018,06,21,13,40,24.10
2018,06,21,13,41,24.10
2018,06,21,13,42,24.10
2018,06,21,13,43,24.10
2018,06,21,13,44,24.20
2018,06,21,13,45,24.20
2018,06,21,13,46,24.30
2018,06,21,13,47,24.30
2018,06,21,13,48,24.40
2018,06,21,13,49,24.50
2018,06,21,13,50,24.60
2018,06,21,13,51,24.70
2018,06,21,13,52,24.70
2018,06,21,13,53,24.80
2018,06,21,13,54,24.80
2018,06,21,13,55,24.90
2018,06,21,13,56,24.90
2018,06,21,13,57,25.00
2018,06,21,13,58,25.00
2018,06,21,13,59,25.00
2018,06,21,14,00,25.00
2018,06,21,14,01,24.90
2018,06,21,14,02,24.90
2018,06,21,14,03,24.80
2018,06,21,14,04,24.80
2018,06,21,14,05,24.90
2018,06,21,14,06,24.90
2018,06,21,14,07,25.00
2018,06,21,14,08,25.10
2018,06,21,14,09,25.10
2018,06,21,14,10,25.20
2018,06,21,14,11,25.30
2018,06,21,14,12,25.30
2018,06,21,14,13,25.30
2018,06,21,14,14,25.40
2018,06,21,14,15,25.50
2018,06,21,14,16,25.50
2018,06,21,14,17,25.70
2018,06,21,14,18,25.80
2018,06,21,14,19,25.90
2018,06,21,14,20,26.00
2018,06,21,14,21,26.10
2018,06,21,14,22,26.20
2018,06,21,14,23,26.40
2018,06,21,14,24,26.50
2018,06,21,14,25,26.50
2018,06,21,14,26,26.60
2018,06,21,14,27,26.70
2018,06,21,14,28,26.70
2018,06,21,14,29,26.80
2018,06,21,14,30,26.80
2018,06,21,14,31,26.90
2018,06,21,14,32,26.90
2018,06,21,14,33,26.90
2018,06,21,14,34,26.90
2018,06,21,14,35,26.80
2018,06,21,14,36,26.80
2018,06,21,14,37,26.80
2018,06,21,14,38,26.80
2018,06,21,14,39,26.80
2018,06,21,14,40,26.80
2018,06,21,14,41,26.80
2018,06,21,14,42,26.80
2018,06,21,14,43,26.70
2018,06,21,14,44,26.70
2018,06,21,14,45,26.70
2018,06,21,14,46,26.80
2018,06,21,14,47,26.80
2018,06,21,14,48,26.90
2018,06,21,14,49,26.90
2018,06,21,14,50,27.00
2018,06,21,14,51,27.00
2018,06,21,14,52,27.10
2018,06,21,14,53,27.10
2018,06,21,14,54,27.20
2018,06,21,14,55,27.30
2018,06,21,14,56,27.30
2018,06,21,14,57,27.40
2018,06,21,14,58,27.50
2018,06,21,14,59,27.50
2018,06,21,15,00,27.60
2018,06,21,15,01,27.70
2018,06,21,15,02,27.70
2018,06,21,15,03,27.80
2018,06,21,15,04,27.80
2018,06,21,15,05,27.90
2018,06,21,15,06,28.00
2018,06,21,15,07,28.10
2018,06,21,15,08,28.10
2018,06,21,15,09,28.20
2018,06,21,15,10,28.20
2018,06,21,15,11,28.20
2018,06,21,15,12,28.30
2018,06,21,15,13,28.40
2018,06,21,15,14,28.40
2018,06,21,15,15,28.50
2018,06,21,15,16,28.60
2018,06,21,15,17,28.70
2018,06,21,15,18,28.80
2018,06,21,15,19,28.90
2018,06,21,15,20,28.90
2018,06,21,15,21,29.00
2018,06,21,15,22,29.10
2018,06,21,15,23,29.20
2018,06,21,15,24,29.30
2018,06,21,15,25,29.40
2018,06,21,15,26,29.50
2018,06,21,15,27,29.60
2018,06,21,15,28,29.60
2018,06,21,15,29,29.70
2018,06,21,15,30,29.80
2018,06,21,15,31,29.90
2018,06,21,15,32,29.90
2018,06,21,15,33,30.10
2018,06,21,15,34,30.20
2018,06,21,15,35,30.30
2018,06,21,15,36,30.40
2018,06,21,15,37,30.50
2018,06,21,15,38,30.50
2018,06,21,15,39,30.60
2018,06,21,15,40,30.60
2018,06,21,15,41,30.50
2018,06,21,15,42,30.50
2018,06,21,15,43,30.40
2018,06,21,15,44,30.30
2018,06,21,15,45,30.30
2018,06,21,15,46,30.30
2018,06,21,15,47,30.20
2018,06,21,15,48,30.20
2018,06,21,15,49,30.20
2018,06,21,15,50,30.20
2018,06,21,15,51,30.10
2018,06,21,15,52,30.10
2018,06,21,15,53,30.10
2018,06,21,15,54,30.00
2018,06,21,15,55,30.00
2018,06,21,15,56,29.90
2018,06,21,15,57,29.90
2018,06,21,15,58,29.90
2018,06,21,15,59,29.90
2018,06,21,16,00,29.90
2018,06,21,16,01,29.80
2018,06,21,16,02,29.80
2018,06,21,16,03,29.80
2018,06,21,16,04,29.70
2018,06,21,16,05,29.60
2018,06,21,16,06,29.60
2018,06,21,16,07,29.60
2018,06,21,16,08,29.60
2018,06,21,16,09,29.60
2018,06,21,16,10,29.60
2018,06,21,16,11,29.60
2018,06,21,16,12,29.60
2018,06,21,16,13,29.60
2018,06,21,16,14,29.60
2018,06,21,16,15,29.60
2018,06,21,16,16,29.60
2018,06,21,16,17,29.60
2018,06,21,16,18,29.60
2018,06,21,16,19,29.60
2018,06,21,16,20,29.60
2018,06,21,16,21,29.70
2018,06,21,16,22,29.70
2018,06,21,16,23,29.60
2018,06,21,16,24,29.60
2018,06,21,16,25,29.50
2018,06,21,16,26,29.50
2018,06,21,16,27,29.40
2018,06,21,16,28,29.30
2018,06,21,16,29,29.30
2018,06,21,16,30,29.20
2018,06,21,16,31,29.20
2018,06,21,16,32,29.20
2018,06,21,16,33,29.10
2018,06,21,16,34,29.10
2018,06,21,16,35,29.10
2018,06,21,16,36,29.10
2018,06,21,16,37,29.10
2018,06,21,16,38,29.10
2018,06,21,16,39,29.10
2018,06,21,16,40,29.10
2018,06,21,16,41,29.20
2018,06,21,16,42,29.30
2018,06,21,16,43,29.30
2018,06,21,16,44,29.20
2018,06,21,16,45,29.10
2018,06,21,16,46,29.00
2018,06,21,16,47,28.90
2018,06,21,16,48,28.80
2018,06,21,16,49,28.70
2018,06,21,16,50,28.70
2018,06,21,16,51,28.70
2018,06,21,16,52,28.70
2018,06,21,16,53,28.70
2018,06,21,16,54,28.70
2018,06,21,16,55,28.70
2018,06,21,16,56,28.70
2018,06,21,16,57,28.80
2018,06,21,16,58,28.80
2018,06,21,16,59,28.80
2018,06,21,17,00,28.90
2018,06,21,17,01,28.90
2018,06,21,17,02,29.00
2018,06,21,17,03,29.00
2018,06,21,17,04,29.10
2018,06,21,17,05,29.10
2018,06,21,17,06,29.20
2018,06,21,17,07,29.20
2018,06,21,17,08,29.20
2018,06,21,17,09,29.20
2018,06,21,17,10,29.10
2018,06,21,17,11,29.00
2018,06,21,17,12,29.00
2018,06,21,17,13,28.90
2018,06,21,17,14,28.90
2018,06,21,17,15,28.80
2018,06,21,17,16,28.70
2018,06,21,17,17,28.70
2018,06,21,17,18,28.60
2018,06,21,17,19,28.60